Location: Cosy Dell
(34.2789°N, 117.4537°W)
Time: 19:23:34
(UTC+00:00)

TSX-5 - Pass Details

Date: 14 July 2020
Orbit: 404 x 1328 km, 68.9° (Epoch: 13 August)

Event Time Altitude Azimuth Distance (km) Brightness Sun altitude
Rises 05:03:04 0° 335° (NNW) 2,654 8.6 -20.7°
Reaches altitude 10° 05:05:01 10° 334° (NNW) 1,860 7.6 -20.9°
Maximum altitude 05:09:09 82° 247° (WSW) 675 4.1 -21.5°
Enters shadow 05:10:21 52° 167° (SSE) 868 4.4 -21.7°
